Regional Weather Roundup
Issued by NWS Raleigh/Durham, NC

Home | Current Version | Previous Version | Text Only | Print | Product List | Glossary On
Versions: 1 2 3 4 5 6 7 8 9 10 11 12 13 14 15 16 17 18 19 20 21 22 23 24 25 26 27 28 29 30 31 32 33 34 35 36 37 38 39 40 41 42 43 44 45 46 47 48 49 50
000
ASUS42 KRAH 040310
RWRRAH
NORTH CAROLINA WEATHER ROUNDUP
NATIONAL WEATHER SERVICE RALEIGH NC
1100 PM EDT MON AUG 03 2015

NOTE: "FAIR" INDICATES FEW OR NO CLOUDS BELOW 12,000 FEET WITH NO
SIGNIFICANT WEATHER AND/OR OBSTRUCTIONS TO VISIBILITY.

NCZ001-053-055-056-065-067-040400-
WESTERN NORTH CAROLINA

CITY           SKY/WX    TMP DP  RH WIND       PRES   REMARKS
ASHEVILLE      CLEAR     74  58  57 N6        30.05R
JEFFERSON      CLEAR     72  49  44 W8        30.10R
MORGANTON      CLEAR     75  63  66 NW3       30.02R
HICKORY        CLEAR     81  62  52 S5        29.96R
RUTHERFORDTON  CLEAR     75  65  70 NE3       29.97R
MOUNT AIRY     CLEAR     76  63  65 CALM      29.99R
BOONE          CLEAR     63  56  76 CALM      30.12R
$$

NCZ021-022-025-041-071-084-088-040400-
CENTRAL NORTH CAROLINA

CITY           SKY/WX    TMP DP  RH WIND       PRES   REMARKS
CHARLOTTE      CLEAR     81  68  64 S9        29.96R
GREENSBORO     CLEAR     80  65  59 S10       29.95R
WINSTON-SALEM  CLEAR     78  66  66 S3        29.97R
RALEIGH-DURHAM PTCLDY    82  68  62 SW14      29.95R
FORT BRAGG     CLEAR     80  71  74 S7        29.95R
FAYETTEVILLE   CLEAR     78  72  81 S6        29.95S
BURLINGTON     CLEAR     80  68  66 S6        29.94R
LAURINBURG     CLEAR     77  71  82 S5        29.96S
$$

NCZ011-015-027-028-043-044-047-080-103-040400-
NORTHEASTERN NORTH CAROLINA

CITY           SKY/WX    TMP DP  RH WIND       PRES   REMARKS
ROCKY MT-WILSO CLEAR     80  71  74 S8        29.95R
GREENVILLE     CLEAR     77  73  88 S9        29.98S
WASHINGTON     PTCLDY    75  72  89 S5        29.97S
ELIZABETH CITY CLEAR     78  72  81 SW12      29.95R
MANTEO         MOCLDY    78  73  86 SW14      29.98S
CAPE HATTERAS  MOCLDY    79  74  84 SW15G21   30.00R
$$

NCZ078-087-090-091-093-098-101-040400-
SOUTHEASTERN NORTH CAROLINA

CITY           SKY/WX    TMP DP  RH WIND       PRES   REMARKS
LUMBERTON      CLEAR     77  73  87 SE5       29.95S
GOLDSBORO      CLEAR     77  74  91 SE5       29.95R
KINSTON        CLEAR     76  73  88 S6        29.98R
KENANSVILLE    PTCLDY   N/A N/A N/A CALM      29.98S
NEW BERN       PTCLDY    77  73  87 S6        29.99R
CHERRY POINT   MOCLDY    77  73  87 S3        29.99S
BEAUFORT       CLOUDY    80  76  87 S10       29.99R
JACKSONVILLE   CLOUDY    78  74  87 S5        29.98R
WILMINGTON     CLOUDY    78  75  90 S5        29.98R
$$




USA.gov is the U.S. government's official web portal to all federal, state and local government web resources and services.